Freedom, CA

3:03 AM PST on December 03, 2016 (GMT -0800)
Watsonville Municipal

Weather History for KWVI - March, 2013

Change the Weather History Date:

Tuesday, March 12, 2013

  Actual Average Record
Temperature  
Mean Temperature 56 °F 53 °F  
Max Temperature 69 °F 62 °F 81 °F (2007)
Min Temperature 43 °F 44 °F 36 °F (1999)
Degree Days  
Heating Degree Days 9    
Month to date heating degree days 145  
Since 1 July heating degree days 2318  
Cooling Degree Days 0    
Month to date cooling degree days 0  
Year to date cooling degree days 0  
Growing Degree Days 6 (Base 50)    
Moisture  
Dew Point 46 °F    
Average Humidity 75    
Maximum Humidity 100    
Minimum Humidity 49    
Precipitation  
Precipitation 0.00 in - 0.73 in (1949)
Month to date precipitation 0.36  
Year to date precipitation 1.51  
Since 1 July precipitation 12.45  
Sea Level Pressure  
Sea Level Pressure 30.13 in    
Wind  
Wind Speed 2 mph (SSE)    
Max Wind Speed 10 mph    
Max Gust Speed 26 mph    
Visibility 4 miles    
Events Fog    
T = Trace of Precipitation, MM = Missing Value Source: NWS Daily Summary

Daily Weather History Graph

Daily Weather History Graph

Search for Another Location

Airport or City:

Trip Planner

Search our weather history database for the weather conditions in past years. The results will help you decide how hot, cold, wet, or windy it might be!

Date:

Astronomy

Mar. 12, 2013 Rise Set
Actual Time 7:21 AM PDT 7:12 PM PDT
Civil Twilight 6:56 AM PDT 7:37 PM PDT
Nautical Twilight 6:26 AM PDT 8:08 PM PDT
Astronomical Twilight 5:55 AM PDT 8:38 PM PDT
Moon 7:33 AM PDT (3/12) 8:29 PM PDT (3/12)
Length of Visible Light 12h 41m
Length of Day
11h 50m
New Moon, 1% of the Moon is Illuminated
Mar 12
New Moon
Mar 19
First Quarter
Mar 27
Full
Apr 2
Last Quarter
Apr 10
New

Hourly Weather History & Observations

Time (PDT) Temp. Windchill Dew Point Humidity Pressure Visibility Wind Dir Wind Speed Gust Speed Precip Events Conditions
12:53 AM 44.1 °F - 41.0 °F 89% 30.14 in 9.0 mi Calm Calm - N/A   Clear
1:31 AM 44.6 °F - 41.0 °F 87% 30.15 in 8.0 mi Calm Calm - N/A   Scattered Clouds
1:48 AM 44.6 °F - 41.0 °F 87% 30.15 in 10.0 mi Calm Calm - N/A   Mostly Cloudy
1:53 AM 44.1 °F - 42.1 °F 93% 30.15 in 10.0 mi Calm Calm - N/A   Overcast
2:06 AM 44.6 °F - 42.8 °F 93% 30.15 in 1.5 mi Calm Calm - N/A   Overcast
2:09 AM 44.6 °F - 44.6 °F 100% 30.15 in 0.8 mi Calm Calm - N/A   Mist
2:20 AM 44.6 °F - 44.6 °F 100% 30.16 in 0.2 mi Calm Calm - N/A Fog Fog
2:53 AM 46.0 °F - 44.1 °F 93% 30.15 in 0.2 mi Calm Calm - N/A Fog Fog
3:53 AM 46.0 °F - 45.0 °F 96% 30.14 in 0.2 mi Calm Calm - 0.01 in Fog Fog
4:11 AM 46.4 °F - 44.6 °F 93% 30.13 in 0.2 mi Calm Calm - N/A Fog Fog
4:53 AM 46.0 °F - 45.0 °F 96% 30.14 in 0.2 mi Calm Calm - N/A Fog Fog
5:53 AM 46.0 °F - 45.0 °F 96% 30.13 in 0.2 mi Calm Calm - N/A Fog Fog
6:53 AM 45.0 °F - 44.1 °F 97% 30.13 in 0.2 mi Calm Calm - N/A Fog Fog
7:53 AM 44.1 °F - 43.0 °F 96% 30.14 in 0.2 mi Calm Calm - N/A Fog Fog
8:53 AM 44.1 °F - 44.1 °F 100% 30.16 in 0.2 mi Calm Calm - N/A Fog Fog
9:34 AM 46.4 °F - 44.6 °F 93% 30.16 in 0.8 mi Calm Calm - N/A   Mist
9:39 AM 46.4 °F 45.2 °F 46.4 °F 100% 30.16 in 1.5 mi Variable 3.5 mph - N/A   Overcast
9:49 AM 46.4 °F - 46.4 °F 100% 30.16 in 2.0 mi Calm Calm - N/A   Mostly Cloudy
9:53 AM 46.9 °F - 46.0 °F 97% 30.16 in 2.5 mi Calm Calm - N/A   Scattered Clouds
10:04 AM 46.4 °F - 44.6 °F 93% 30.15 in 3.0 mi Calm Calm - N/A   Partly Cloudy
10:53 AM 55.0 °F - 48.0 °F 77% 30.15 in 10.0 mi Calm Calm - N/A   Clear
11:53 AM 60.1 °F - 48.9 °F 67% 30.14 in 10.0 mi Variable 3.5 mph - N/A   Clear
12:53 PM 63.0 °F - 50.0 °F 63% 30.13 in 10.0 mi South 6.9 mph - N/A   Clear
1:53 PM 64.9 °F - 51.1 °F 61% 30.10 in 10.0 mi SSE 3.5 mph - N/A   Clear
2:53 PM 64.9 °F - 51.1 °F 61% 30.08 in 10.0 mi South 6.9 mph - N/A   Clear
3:53 PM 68.0 °F - 48.9 °F 50% 30.07 in 10.0 mi SSE 5.8 mph - N/A   Clear
4:53 PM 64.9 °F - 50.0 °F 58% 30.07 in 10.0 mi SSE 8.1 mph - N/A   Clear
5:53 PM 55.9 °F - 50.0 °F 80% 30.08 in 10.0 mi SSE 6.9 mph - N/A   Clear
6:53 PM 51.1 °F - 48.0 °F 89% 30.10 in 10.0 mi SSE 8.1 mph - N/A   Clear
7:10 PM 50.0 °F - 48.2 °F 94% 30.10 in 7.0 mi SSE 4.6 mph - N/A   Scattered Clouds
7:21 PM 50.0 °F - 48.2 °F 94% 30.10 in 5.0 mi South 5.8 mph - N/A   Mostly Cloudy
7:53 PM 50.0 °F - 48.0 °F 93% 30.12 in 3.0 mi SSE 5.8 mph - N/A   Overcast
8:23 PM 48.2 °F - 48.2 °F 100% 30.12 in 2.5 mi SSE 5.8 mph - N/A   Overcast
9:53 PM 48.9 °F - 46.9 °F 93% 30.13 in 3.0 mi Calm Calm - N/A   Overcast
10:05 PM 48.2 °F - 46.4 °F 93% 30.13 in 1.8 mi Calm Calm - N/A   Overcast
10:53 PM 48.0 °F - 46.9 °F 96% 30.14 in 0.2 mi Calm Calm - N/A Fog Fog